ECMWFNIL_250_spd_105.txt.gz
Wind_Speed
35 34 34 34 35 36 37 38 39 40 41 42 43 44 46 47 48 49 50 51 52 53 54 55 55 55 55 56 57 58 59 60 61 62 63 63 63 63 62 61 61 60
35 35 35 35 36 37 38 39 40 41 43 44 45 46 47 48 49 50 52 52 53 54 54 54 54 55 56 57 58 58 59 61 62 63 63 63 62 62 61 60 60 61
36 36 37 38 39 39 40 41 42 44 45 46 47 48 50 50 51 52 53 53 53 53 53 53 55 56 56 57 58 59 60 61 62 62 62 62 62 61 60 60 60 61
37 38 39 40 41 41 42 43 44 46 47 48 49 51 51 52 52 52 52 52 52 53 54 55 56 56 57 58 59 60 61 62 62 62 61 61 61 60 59 60 60 61
39 40 41 42 43 44 44 45 46 48 49 50 51 52 52 52 52 52 51 52 53 54 54 55 56 57 58 59 60 61 61 61 61 61 61 60 60 59 59 59 60 61
40 41 42 44 45 46 46 47 48 49 50 51 52 53 53 53 52 52 51 52 53 54 55 56 57 58 59 59 60 61 60 60 60 60 60 59 59 59 58 59 60 62
42 43 44 45 45 46 47 48 49 50 51 52 52 53 52 52 52 51 51 52 53 55 56 56 57 58 59 59 60 60 59 59 60 59 59 59 59 58 58 59 61 63
44 45 45 46 46 46 47 49 50 50 51 52 52 52 52 51 51 50 51 52 54 55 55 56 58 59 59 59 59 58 58 59 58 58 58 58 58 58 59 60 62 64
45 46 47 47 47 48 48 49 49 49 50 51 51 51 50 50 50 50 52 54 55 55 55 57 58 59 59 59 58 57 57 58 57 58 58 58 58 59 61 62 64 66
47 48 48 48 49 49 49 49 49 49 50 50 50 50 50 49 50 51 54 55 55 55 56 58 58 58 58 57 56 56 56 56 57 58 58 58 59 61 62 64 66 68
49 49 49 49 49 49 48 49 49 50 50 50 50 50 49 50 51 53 55 55 55 56 57 58 58 58 57 56 55 55 55 56 57 58 58 59 60 62 64 66 68 71
48 49 49 49 48 48 49 49 50 50 50 50 50 50 50 52 53 54 54 54 55 56 57 58 58 57 55 54 54 54 55 56 57 58 59 60 61 63 66 68 70 72
48 48 49 49 49 49 50 50 49 49 49 49 50 51 52 53 54 54 53 54 55 56 57 57 57 55 54 53 54 55 56 57 57 59 60 62 63 65 68 70 72 74
48 49 50 50 50 49 48 49 49 49 49 50 51 51 52 53 53 53 52 53 54 55 57 57 55 53 53 54 54 55 56 57 58 60 61 63 65 67 69 72 74 76
50 51 51 51 51 49 48 48 49 48 49 51 51 51 51 52 51 51 52 53 54 56 57 55 53 53 53 54 55 56 57 58 59 61 63 65 66 69 71 73 75 77
51 51 51 50 50 49 47 45 44 45 48 51 51 51 52 52 52 52 52 54 55 57 56 54 53 54 54 55 56 57 58 59 60 62 64 66 68 70 73 75 77 78
50 50 49 49 48 48 46 43 43 46 48 49 49 51 53 54 54 54 54 56 56 57 55 54 54 55 55 56 57 58 58 60 61 63 65 67 69 72 74 76 78 79
49 48 48 48 47 46 45 44 44 46 45 44 47 52 54 54 54 55 56 56 56 56 55 54 55 56 56 57 58 58 59 60 62 64 66 69 71 73 76 77 79 80
49 48 47 47 46 46 45 44 44 42 39 40 47 53 54 54 55 56 57 56 56 55 55 55 56 56 57 58 58 59 60 61 63 65 68 70 72 75 77 78 79 81
47 47 47 47 46 46 45 44 43 43 43 45 49 53 55 55 55 56 56 56 55 55 55 56 56 57 58 59 59 59 60 61 64 66 69 71 73 75 77 78 80 82
47 47 47 47 47 46 45 45 45 46 47 48 51 54 55 55 55 55 55 54 54 54 55 56 57 58 59 59 59 60 61 62 65 67 70 72 74 76 78 79 81 83
47 47 47 47 47 46 46 47 48 48 48 50 52 54 54 54 54 54 53 53 54 54 55 56 57 59 59 59 60 61 62 64 66 69 71 73 76 77 79 80 82 83
47 47 47 47 47 46 46 48 49 49 50 52 53 53 53 53 53 53 53 53 54 54 55 56 58 59 59 60 62 63 64 66 68 70 73 75 77 78 80 81 83 84
46 47 47 47 47 47 47 48 49 50 51 52 53 52 52 52 52 52 53 53 54 55 55 57 59 59 60 61 63 65 67 69 71 72 75 77 78 79 80 82 83 85
47 47 47 47 47 47 48 48 50 50 51 51 51 51 52 52 52 52 53 53 54 55 56 57 58 59 60 62 64 66 68 70 72 74 76 78 79 80 81 83 84 85
47 47 48 48 48 48 49 50 50 50 50 50 51 51 51 51 52 52 53 54 55 56 57 58 58 59 61 63 65 67 69 71 73 76 77 79 79 81 82 84 85 85

ECMWFNIL_250_spd_108.txt.gz
Wind_Speed
56 54 52 50 48 45 41 39 38 37 37 37 38 39 39 40 42 43 45 46 48 49 51 52 53 53 54 54 54 54 54 55 56 57 58 58 59 61 62 63 63 62
54 52 50 48 45 42 40 38 38 38 38 39 40 41 42 43 44 46 47 49 50 51 52 53 53 54 54 54 54 54 55 56 57 58 58 58 60 62 63 63 62 61
49 48 46 44 42 40 39 38 38 38 39 41 42 43 44 45 47 48 50 51 52 52 53 53 53 53 54 54 54 55 56 57 58 58 58 59 61 63 63 62 61 60
45 46 45 43 41 40 39 38 39 40 41 42 44 45 46 47 49 50 51 52 52 53 53 53 53 54 54 55 55 56 57 57 57 58 59 60 62 62 62 60 59 59
47 47 45 43 42 41 40 39 40 41 42 43 45 46 47 48 49 50 51 52 52 52 52 53 53 54 55 56 56 56 56 57 57 58 60 61 61 61 60 59 59 58
47 46 45 44 43 41 40 40 42 43 44 45 46 47 48 49 50 51 52 52 52 52 53 53 54 55 55 55 55 55 55 56 57 59 60 60 60 60 59 58 58 59
46 46 45 43 42 41 41 42 43 44 45 46 47 48 49 51 52 52 52 52 52 53 54 54 55 55 55 54 54 55 55 56 57 58 59 59 59 59 58 58 58 59
45 44 43 42 42 42 42 43 45 46 47 48 49 50 51 51 52 51 52 53 53 54 55 55 55 54 54 54 55 55 55 56 57 58 59 58 58 58 58 58 59 60
44 43 43 42 42 42 43 45 46 47 48 49 50 50 51 51 51 52 53 54 54 55 55 55 54 54 54 55 55 55 55 56 57 58 58 58 58 58 58 58 60 61
44 43 43 43 43 44 45 46 47 47 48 49 49 50 50 51 52 53 53 54 54 55 55 55 54 54 55 55 54 54 55 57 58 58 58 58 58 58 58 59 61 61
43 43 43 44 44 44 45 46 47 47 48 48 49 50 50 51 52 53 53 54 55 55 55 55 55 55 54 54 53 54 55 57 58 58 59 59 59 59 59 60 61 62
43 43 44 44 44 44 45 45 46 47 47 48 48 49 50 51 52 53 53 54 55 55 55 56 56 55 53 53 53 54 55 57 58 59 60 60 60 59 60 61 62 63
42 42 43 43 43 43 43 44 46 47 48 48 48 49 51 52 53 53 53 54 54 55 57 58 56 54 53 53 54 55 56 58 59 60 61 61 60 60 60 61 62 64
41 41 42 42 42 42 43 45 47 47 46 45 46 48 49 50 51 52 53 54 55 57 59 58 56 54 55 55 54 55 57 59 60 61 61 61 60 61 61 61 63 65
41 41 42 42 43 43 43 43 44 44 43 43 45 45 44 47 50 51 52 54 56 58 58 56 55 55 55 55 55 57 58 59 60 62 62 61 61 61 61 62 64 65
42 42 43 43 43 43 43 41 41 43 43 43 46 46 45 48 51 50 50 53 56 57 57 56 56 56 55 55 56 57 58 59 61 62 62 62 62 62 62 63 64 65
43 43 44 44 43 43 42 39 38 39 41 42 45 46 47 49 48 44 46 53 57 58 58 57 57 57 56 56 57 58 59 60 61 62 62 62 63 62 63 64 65 66
44 44 44 44 43 40 37 36 37 39 42 44 45 46 47 46 42 41 48 56 59 59 59 58 57 57 57 57 58 59 60 61 62 62 62 63 63 64 64 65 66 68
45 45 44 43 42 38 36 38 41 43 46 47 46 46 45 43 44 49 55 58 59 59 59 58 58 57 57 58 58 59 60 61 62 62 63 63 64 65 66 67 69 70
45 45 44 42 42 40 39 41 43 45 47 48 47 45 44 45 50 54 56 57 57 58 58 58 58 57 58 58 59 59 60 61 62 62 63 64 65 66 67 69 71 73
44 44 43 42 42 42 42 43 44 45 47 47 47 47 47 49 52 53 54 55 56 57 57 57 57 57 58 58 59 59 60 61 62 62 63 64 66 67 68 70 72 74
43 43 42 43 43 43 43 44 45 46 46 47 48 49 49 51 52 52 53 54 55 56 56 56 57 58 58 58 58 59 61 62 62 62 63 65 66 67 68 70 73 75
43 42 43 44 44 44 44 45 45 46 47 47 49 50 50 51 52 53 53 54 55 56 56 56 57 58 58 58 58 60 61 62 62 63 63 65 66 67 69 71 73 76
43 43 44 44 45 44 44 46 47 47 48 48 49 50 51 51 52 53 54 55 55 56 56 57 57 57 58 58 59 60 61 62 62 63 63 65 66 68 70 72 75 77
43 44 44 45 45 45 45 46 47 48 48 49 50 51 52 52 53 54 54 55 55 56 56 57 57 57 58 58 59 60 61 62 62 63 64 66 67 69 71 74 76 79
44 44 45 45 45 46 46 47 47 48 48 49 50 52 52 53 53 54 55 55 55 56 56 56 57 57 58 58 59 60 61 61 62 63 65 67 69 71 73 76 78 80

ECMWFNIL_250_spd_111.txt.gz
Wind_Speed
56 53 50 53 59 62 62 63 62 62 59 54 49 46 44 43 41 40 40 41 42 44 46 48 50 51 53 53 54 56 57 57 58 59 60 60 58 58 58 59 61 61
54 51 52 58 63 63 64 63 62 60 56 52 49 46 44 42 41 41 41 42 44 46 48 50 51 52 53 54 56 57 57 58 58 59 60 59 58 58 59 60 61 62
53 52 56 61 64 64 64 62 60 57 54 52 49 46 44 43 42 42 43 44 46 47 49 50 51 53 55 56 56 57 58 58 59 59 59 58 58 58 59 59 61 62
57 57 60 63 63 63 62 59 57 55 53 51 48 45 45 44 43 44 45 46 48 49 50 52 53 54 55 56 57 57 58 59 58 58 58 58 58 58 58 59 61 63
59 60 61 61 61 60 58 56 54 52 50 48 46 45 44 44 45 46 47 48 50 51 52 53 53 54 55 56 57 58 58 58 58 58 58 58 58 57 57 58 61 62
59 58 58 58 58 57 55 53 51 49 48 46 45 45 44 45 46 47 48 50 51 51 52 52 53 54 55 56 57 57 58 58 58 58 58 58 58 57 56 58 60 62
56 56 55 55 54 53 52 50 49 48 46 45 45 45 45 46 47 48 50 50 51 51 51 52 54 54 55 56 56 57 58 58 58 58 58 58 57 56 57 59 60 62
53 53 53 52 52 51 50 49 48 47 45 45 45 45 46 47 48 49 50 50 50 50 51 53 53 54 55 56 56 57 58 59 60 60 59 57 56 56 58 59 60 63
51 51 51 50 50 49 48 48 47 46 45 45 45 46 47 48 48 49 49 49 50 51 52 53 53 54 56 56 57 58 59 61 61 59 57 56 56 57 58 59 61 64
49 49 49 49 48 47 47 47 46 45 45 45 45 46 47 47 47 47 48 49 50 51 51 52 53 54 56 56 57 59 61 61 60 58 56 57 57 58 59 60 62 64
48 48 47 47 47 46 46 45 45 45 44 44 45 46 46 46 46 47 48 49 49 49 50 52 53 54 55 56 58 61 62 61 59 57 58 58 59 59 60 61 63 65
47 46 46 46 45 45 45 45 44 44 44 44 44 44 44 45 46 47 47 47 48 49 51 51 52 54 55 57 60 61 60 59 59 59 59 59 59 60 61 62 64 66
46 45 45 44 44 44 44 43 43 43 43 42 42 43 44 44 45 46 47 47 49 50 50 51 52 54 56 59 61 60 59 59 60 60 59 59 60 61 62 64 65 67
44 44 44 44 43 43 43 42 41 41 42 42 42 43 43 43 44 45 45 47 48 49 50 52 53 54 56 59 61 60 60 61 61 61 61 61 61 62 63 65 66 67
44 43 43 43 42 41 41 40 40 41 42 42 42 42 42 43 43 44 44 46 47 49 51 53 53 55 57 60 61 62 62 62 62 62 62 62 63 64 65 66 67 68
43 43 42 41 40 39 39 39 40 41 42 41 41 41 41 40 40 41 43 44 46 50 53 54 54 58 60 61 63 63 63 63 63 63 63 63 64 65 65 66 66 67
43 42 41 40 39 39 39 39 40 40 39 39 41 41 39 38 38 40 42 45 49 53 55 56 57 60 62 62 63 63 64 64 64 64 64 64 65 65 65 65 66 66
42 41 40 39 39 39 40 39 38 38 38 40 42 43 42 41 42 43 46 49 52 55 56 57 57 59 60 61 62 63 64 65 64 64 65 65 65 65 65 65 65 66
41 41 40 40 40 40 40 39 38 39 41 43 43 43 43 43 43 45 48 49 51 54 56 56 56 57 58 59 61 62 63 63 63 64 65 65 65 65 65 65 65 65
41 41 41 41 41 41 41 41 41 41 42 43 43 43 43 44 45 46 48 49 51 53 55 56 57 57 58 59 60 61 62 62 62 63 64 64 64 64 64 64 64 65
42 42 42 42 42 42 42 42 42 42 43 43 43 43 44 45 46 47 49 50 51 53 54 56 57 58 58 59 60 61 61 62 63 63 64 64 64 64 64 64 65 66
43 43 43 43 43 42 42 42 43 43 42 42 43 44 44 45 46 47 49 51 52 53 55 56 57 58 58 59 60 61 62 63 63 64 64 64 64 64 64 64 65 67
45 44 44 44 44 43 43 43 43 43 43 42 44 45 45 46 47 49 50 51 53 54 55 57 57 58 58 59 60 61 62 63 64 64 64 64 64 64 64 65 66 67
45 45 45 45 44 44 44 44 44 44 44 44 45 46 46 47 49 50 51 53 54 55 56 57 57 58 59 59 60 61 62 63 64 64 64 64 64 64 65 66 67 69
46 46 46 45 45 44 44 44 44 45 45 46 46 47 47 49 50 51 52 54 55 55 56 57 58 58 59 60 61 62 63 63 64 64 64 64 65 65 66 67 69 70
47 47 46 46 45 45 44 44 45 46 46 46 47 47 48 50 51 52 53 55 55 55 57 58 58 59 59 60 61 62 63 63 64 64 64 65 66 67 68 69 70 72

ECMWFNIL_250_spd_114.txt.gz
Wind_Speed
53 54 54 55 55 56 57 57 57 57 57 57 58 58 57 58 61 62 60 57 55 52 50 48 47 46 46 46 47 49 51 52 52 53 53 54 55 55 56 56 57 57
54 55 56 56 56 57 58 58 58 58 59 60 60 59 59 60 61 60 57 55 53 51 49 48 47 46 47 48 49 50 52 52 53 53 54 54 55 56 57 56 57 57
56 56 57 57 58 59 60 60 60 60 61 60 60 59 59 58 57 56 55 53 51 49 48 47 47 47 48 49 50 51 52 52 53 54 54 54 55 56 57 57 57 57
57 58 58 59 60 61 61 62 61 61 60 59 58 57 56 55 55 54 53 51 50 49 48 47 47 48 49 50 51 51 52 53 54 54 54 55 55 56 56 57 57 56
59 60 60 61 61 61 62 61 60 59 57 56 55 54 53 53 53 52 51 50 49 48 47 48 48 49 50 51 51 52 53 54 54 54 54 54 55 56 56 57 56 56
61 61 61 61 61 60 59 58 57 56 55 54 53 52 52 52 51 50 49 48 48 47 48 48 49 50 50 50 51 52 53 53 53 53 53 54 55 56 56 56 57 58
61 60 60 59 58 57 56 55 54 53 52 52 51 51 51 50 49 49 48 47 47 47 48 49 49 50 50 51 52 52 52 52 53 53 53 55 55 56 56 57 58 59
58 58 57 56 55 54 53 52 52 51 50 50 50 49 49 48 48 47 47 47 47 47 48 48 49 49 50 51 51 51 52 52 52 53 54 55 56 56 57 58 59 60
55 55 54 54 53 52 51 50 50 49 49 49 49 48 48 47 47 46 46 46 47 47 47 48 48 49 50 50 50 51 51 52 52 53 55 56 57 58 59 60 60 61
53 53 52 52 51 50 49 49 48 48 48 48 48 47 47 46 46 46 46 46 46 46 47 47 48 49 49 49 49 49 51 52 53 54 56 57 59 60 61 61 62 63
51 51 50 50 49 48 47 47 47 47 47 47 47 46 46 45 45 45 45 45 45 45 46 47 47 47 48 48 48 50 51 53 53 55 57 58 60 61 61 62 63 64
50 49 48 48 47 47 46 45 46 46 47 46 46 46 45 44 44 44 43 43 44 45 46 46 46 47 48 48 49 51 53 53 55 57 59 60 61 62 62 63 64 65
48 47 47 47 46 46 45 45 45 46 46 46 46 45 44 43 43 43 42 42 43 43 43 44 45 47 49 49 50 52 54 55 57 58 60 60 61 62 63 64 64 66
47 46 46 46 46 45 44 44 45 46 45 45 45 44 43 42 42 42 42 41 41 41 41 43 45 48 50 51 52 53 56 58 59 60 61 62 62 63 64 64 65 66
47 46 46 46 46 45 44 44 44 45 45 45 44 43 42 42 42 42 41 40 40 40 41 43 47 50 52 54 55 55 57 60 62 64 64 64 64 64 64 65 66 67
47 46 46 46 45 45 44 43 43 44 45 44 44 43 42 42 42 41 40 39 40 41 41 43 49 52 53 54 55 56 58 60 62 63 64 63 64 64 64 65 66 67
48 47 46 45 45 45 43 42 43 44 45 44 44 43 42 43 42 41 40 40 41 43 44 46 49 51 51 53 54 56 57 58 60 61 62 63 63 63 64 65 66 67
48 47 46 46 45 44 43 43 43 44 45 45 44 43 43 44 43 42 42 41 41 41 44 47 49 49 50 52 53 54 55 57 59 60 61 62 63 63 64 66 67 68
49 48 47 46 46 45 43 43 44 45 45 45 45 44 44 44 44 43 42 42 42 41 43 47 49 49 50 51 52 54 55 57 59 60 61 62 62 63 65 66 67 67
49 48 47 47 47 46 44 44 45 46 46 46 46 45 45 45 45 44 44 44 43 42 43 46 48 49 50 51 52 54 55 57 59 60 61 62 62 63 65 66 67 67
49 49 48 48 47 46 44 45 46 47 47 47 46 46 46 46 46 45 45 44 44 43 44 47 48 49 50 52 53 54 55 58 59 60 60 61 62 64 65 66 67 67
49 49 49 49 48 46 45 46 46 47 47 47 47 46 46 46 46 45 45 45 45 45 46 48 48 49 51 53 53 55 56 58 59 59 60 61 63 65 66 66 67 67
48 49 49 49 47 46 46 47 47 47 48 47 46 46 45 45 46 46 46 46 46 46 47 49 49 50 52 53 54 56 57 58 59 59 60 62 64 65 66 66 67 68
47 48 48 48 47 47 47 47 47 48 48 48 47 47 46 46 46 46 46 46 46 47 48 50 50 51 53 54 55 57 58 59 59 60 61 63 65 66 67 67 67 68
47 48 47 47 47 47 47 48 48 48 48 48 48 48 48 47 47 46 46 47 47 48 50 52 51 51 53 54 56 59 59 59 60 61 62 64 65 66 67 67 68 68
47 47 47 46 46 47 47 48 48 49 49 49 49 49 48 47 47 46 46 47 47 49 52 53 52 51 53 54 57 60 61 60 61 62 63 65 66 67 68 68 68 69

ECMWFNIL_250_spd_117.txt.gz
Wind_Speed
51 49 48 48 49 50 51 52 52 53 54 55 56 56 56 57 58 60 60 60 60 59 57 56 54 52 50 49 48 47 48 48 49 50 50 50 51 51 52 52 53 53
50 49 48 48 50 51 52 52 53 54 56 57 57 58 58 58 59 60 60 59 58 56 55 54 52 50 48 47 47 47 48 49 50 50 50 50 51 51 52 53 53 52
49 49 49 50 51 52 53 54 54 56 57 58 59 60 60 59 59 59 58 56 55 54 53 51 49 47 47 46 47 48 49 49 50 50 50 50 51 52 53 53 53 52
49 49 50 51 53 54 54 55 56 58 59 59 60 60 59 58 58 57 56 54 53 52 50 48 47 46 46 47 47 48 49 49 49 49 50 50 52 53 53 53 52 49
50 50 51 52 53 54 55 57 58 59 59 59 59 59 58 56 56 54 53 52 50 49 48 46 46 46 46 47 47 48 48 49 49 49 50 51 53 53 53 52 49 48
52 53 55 55 54 55 56 57 58 57 57 58 58 57 55 54 53 52 51 49 48 47 46 46 46 46 46 47 47 47 48 48 48 49 51 52 53 53 51 49 48 48
54 56 56 56 55 56 56 56 56 56 56 56 55 55 53 52 51 49 48 47 46 45 45 45 45 45 46 47 47 47 47 47 48 50 52 53 53 52 50 48 48 49
55 54 53 54 55 55 55 55 55 54 53 53 53 52 51 50 48 47 46 45 45 44 44 45 45 46 46 46 46 46 47 48 50 51 52 53 52 51 50 49 48 50
54 53 53 54 53 53 54 54 53 52 51 50 50 50 49 47 46 45 44 44 44 44 44 45 45 46 46 46 46 46 48 49 51 52 52 52 52 51 50 49 50 51
54 54 54 52 52 52 51 50 50 49 48 48 48 47 46 45 44 44 43 43 43 44 44 45 45 46 46 46 46 47 49 51 51 52 52 52 52 51 50 51 51 53
53 52 50 49 49 49 48 47 47 47 46 46 46 46 45 44 43 43 43 43 43 44 45 45 45 45 46 46 47 49 50 51 51 52 52 52 51 51 51 51 53 55
50 48 47 46 46 46 45 45 45 45 45 45 44 44 44 43 43 42 42 43 43 44 44 44 44 45 46 46 48 49 50 51 52 52 52 51 50 51 51 53 54 56
47 45 44 44 44 44 44 44 44 45 45 44 43 43 43 42 42 42 42 43 44 44 44 44 44 45 46 47 49 50 50 52 53 52 50 50 51 51 53 54 56 57
43 43 43 43 43 44 44 44 44 44 44 43 43 43 43 42 42 42 42 43 44 44 44 44 44 45 46 47 49 51 51 51 51 50 49 50 51 52 53 55 56 58
42 43 43 43 43 44 44 44 44 45 44 44 43 44 43 42 42 42 42 43 44 44 44 45 45 45 46 47 49 52 52 51 49 48 49 50 51 52 54 55 56 58
45 45 44 44 44 45 45 45 45 45 45 44 44 44 43 43 42 42 43 44 44 45 45 46 46 46 46 47 50 51 51 49 49 49 50 52 52 53 54 55 56 58
46 46 45 45 45 45 45 45 45 46 45 45 45 45 44 44 43 43 44 45 45 45 46 46 46 46 46 48 50 50 49 48 49 50 52 53 53 53 54 55 56 58
46 45 45 45 45 45 45 46 46 46 46 46 46 45 44 45 44 44 45 46 46 46 47 47 47 46 46 47 48 48 47 48 49 51 52 52 52 53 54 55 56 58
46 45 45 45 45 45 45 45 46 46 46 46 46 45 45 45 45 45 46 47 47 47 48 48 48 47 46 46 46 46 47 48 50 51 52 52 52 52 53 55 56 58
46 45 44 44 44 44 45 45 45 46 47 47 46 45 46 46 46 46 47 48 48 48 48 49 48 48 47 47 48 48 49 50 51 52 51 51 51 52 53 55 57 59
46 44 44 44 44 44 44 44 45 46 47 47 46 45 46 47 47 47 48 48 49 49 49 50 49 47 48 49 50 50 51 52 52 52 51 51 51 52 54 55 57 60
47 46 45 44 44 44 44 45 46 47 47 46 46 45 46 47 47 48 48 49 49 49 50 50 49 48 49 51 51 51 51 52 52 51 51 51 51 53 55 56 58 60
49 47 46 46 46 46 45 45 47 47 47 46 46 46 46 47 47 48 49 49 49 49 50 51 50 49 51 52 52 51 52 52 52 52 51 52 52 53 55 57 59 61
49 49 47 46 47 47 47 46 47 47 47 46 46 46 47 47 48 49 49 49 49 49 51 51 50 50 52 53 53 52 51 51 51 52 53 53 53 55 56 58 60 63
50 49 47 46 48 49 48 48 48 48 47 47 47 47 48 48 49 49 49 49 49 49 50 51 51 51 53 54 55 53 52 51 52 53 55 56 56 57 59 61 62 64
51 50 47 46 47 48 49 49 49 48 48 48 47 47 48 49 49 50 50 49 49 49 49 50 51 52 53 54 56 54 53 53 53 54 56 58 59 61 62 63 64 66

ECMWFNIL_250_spd_123.txt.gz
Wind_Speed
49 48 48 46 45 44 43 43 44 45 45 45 47 49 50 50 50 50 52 53 53 53 54 54 54 56 58 59 59 59 59 59 57 56 53 52 50 49 49 48 49 49
49 48 48 47 45 44 43 43 45 46 46 47 49 50 50 50 50 50 52 53 53 54 54 54 55 57 58 59 59 59 58 57 55 53 52 50 49 48 48 48 49 49
49 49 48 46 45 44 44 45 46 47 47 48 50 50 51 51 51 51 52 53 54 54 54 55 56 58 59 59 59 57 55 54 53 51 50 49 48 48 48 48 48 48
51 51 49 47 45 45 45 46 46 47 47 48 49 51 52 52 51 51 51 52 53 54 55 57 58 58 59 58 56 54 53 52 51 50 49 48 47 47 48 48 48 47
52 52 50 47 46 45 45 46 47 47 48 49 51 52 52 52 51 51 52 54 55 57 58 59 58 58 57 55 53 52 51 50 50 49 48 47 47 47 48 48 47 47
53 53 50 47 46 46 46 47 48 48 49 50 52 52 52 53 54 55 57 58 59 60 59 58 57 56 54 52 51 50 50 50 49 48 47 47 47 47 47 47 47 46
51 50 48 47 47 49 50 51 52 52 53 53 54 55 55 56 57 58 59 59 59 59 57 56 54 53 51 50 50 50 49 49 48 48 48 47 47 47 47 47 46 46
47 47 46 47 49 51 52 53 54 54 54 55 56 56 56 56 57 57 57 56 56 54 53 52 51 50 49 49 49 49 49 49 49 48 48 48 47 47 47 47 46 46
43 43 44 46 48 49 50 51 52 52 52 53 53 53 53 53 53 52 52 51 50 49 48 48 48 49 49 49 50 50 50 49 49 49 49 48 48 47 47 47 47 46
40 41 42 44 45 46 47 48 49 49 49 49 49 48 49 48 48 47 46 45 45 45 46 47 48 49 49 50 50 50 50 50 50 50 49 49 48 48 47 47 47 47
38 40 41 42 42 43 44 45 46 46 47 46 45 45 44 43 42 41 41 42 43 45 46 47 48 49 49 50 50 50 50 50 50 50 50 49 49 48 48 48 48 48
37 38 39 39 38 39 39 40 42 43 43 42 40 39 39 39 39 40 42 43 44 45 45 46 47 48 49 49 50 50 50 50 51 51 50 50 49 48 48 48 48 49
35 36 36 35 34 34 35 36 38 38 38 37 37 37 38 39 41 42 43 44 44 44 44 45 45 46 47 48 49 49 49 50 50 51 51 51 50 49 49 49 49 50
33 34 34 35 35 35 35 34 35 35 35 36 38 39 38 38 39 41 41 41 41 41 41 42 43 45 47 48 48 48 49 49 50 50 51 51 51 50 50 50 51 51
32 32 32 33 34 35 33 32 34 36 37 37 37 36 35 35 38 38 38 38 38 38 41 43 45 46 47 47 47 48 48 49 50 50 51 51 51 51 52 53 52 50
32 32 31 30 30 31 31 32 35 37 36 34 33 32 33 35 36 36 37 38 40 42 43 44 44 45 46 47 48 48 49 49 50 51 51 52 53 54 54 52 51 51
34 34 31 29 30 32 32 33 34 34 33 31 30 31 34 36 37 38 39 40 41 42 41 42 45 47 47 47 48 48 49 50 51 51 52 52 53 55 55 53 53 54
35 34 31 30 32 33 32 31 32 31 31 30 31 33 36 37 37 37 37 37 38 39 40 45 48 46 45 46 48 49 51 53 53 54 53 52 51 54 57 57 55 55
36 34 31 31 33 33 31 31 31 30 30 30 32 35 37 36 34 34 35 37 39 40 43 47 46 43 45 48 50 53 55 55 55 55 55 53 51 53 56 56 56 56
36 34 32 33 35 34 33 32 31 31 31 32 34 35 35 36 37 36 36 38 41 43 46 46 43 44 49 52 53 56 58 58 57 55 55 55 54 54 56 57 57 58
37 34 33 35 35 34 33 33 32 32 33 34 35 36 37 40 41 39 38 38 41 44 45 44 44 49 53 54 56 58 59 59 59 57 57 58 57 56 58 59 60 59
37 35 34 34 34 33 32 32 32 32 33 33 34 36 39 41 42 42 41 39 41 44 45 46 50 54 55 57 59 58 58 60 61 60 60 59 59 59 60 61 61 61
38 35 34 33 33 33 33 33 34 33 33 34 35 37 40 40 40 39 38 40 44 47 48 51 55 56 57 60 59 57 59 62 63 62 61 61 61 61 60 61 61 60
38 36 34 34 35 37 37 37 36 34 32 33 34 36 37 35 32 34 38 45 50 50 51 54 56 57 61 61 60 60 62 63 63 63 63 62 61 61 60 60 59 59
39 37 36 36 37 39 40 39 36 32 29 30 32 36 34 30 32 39 45 49 50 52 55 57 56 59 64 63 61 62 63 63 63 63 62 61 61 61 61 60 60 60
39 38 38 38 39 40 41 39 37 32 26 27 36 41 39 37 39 43 48 51 52 56 59 59 60 63 65 63 62 63 63 64 63 62 61 62 62 61 60 60 61 62

ECMWFNIL_250_spd_129.txt.gz
Wind_Speed
49 47 46 47 47 47 46 46 46 46 47 47 47 47 47 48 48 48 48 47 46 45 46 46 48 48 49 49 49 49 50 50 52 54 55 54 52 50 47 46 46 47
49 47 47 48 49 48 47 47 47 48 48 48 48 48 48 49 49 49 49 49 49 48 48 48 48 49 50 50 50 50 51 52 54 54 52 50 48 46 45 45 46 45
50 49 48 50 51 49 49 49 49 49 50 49 49 49 49 50 50 50 50 50 50 50 49 49 49 50 51 50 50 51 52 53 52 50 48 46 45 44 44 45 43 42
51 50 51 53 53 51 52 52 51 51 51 51 50 50 50 51 51 51 51 51 51 51 50 50 50 51 51 50 51 51 51 50 47 45 44 43 43 43 42 41 40 39
52 51 53 56 55 53 53 53 52 52 52 51 51 51 51 51 51 51 51 51 51 51 50 50 51 50 50 49 49 49 47 45 43 42 41 41 41 40 38 37 36 36
54 54 56 58 56 53 53 53 53 53 52 52 51 50 51 51 51 51 51 50 49 49 49 49 48 47 47 47 46 45 43 41 40 40 40 39 37 35 35 34 34 36
56 57 58 57 55 53 52 52 53 53 52 51 50 49 50 50 50 49 48 47 46 46 46 45 45 44 44 43 42 41 39 39 39 38 37 35 33 33 33 33 34 38
55 56 55 54 53 52 51 51 52 52 50 48 48 48 48 48 47 45 43 42 42 42 42 42 42 41 41 40 39 37 37 37 36 35 34 32 32 32 32 33 36 39
51 52 52 51 51 50 50 50 50 48 46 45 46 46 45 44 42 40 39 39 39 39 39 39 39 38 37 36 35 35 36 35 33 33 32 31 31 32 32 34 37 40
47 48 48 48 48 48 48 47 46 43 42 42 43 43 41 39 38 37 37 36 36 35 35 36 36 35 34 34 34 35 34 32 32 31 30 29 30 32 33 35 38 41
46 46 46 46 46 46 45 44 41 39 39 40 40 39 37 35 35 35 34 33 33 34 34 35 35 34 34 34 34 33 32 32 31 30 28 29 31 32 33 36 39 42
45 44 44 44 44 44 42 40 38 37 38 38 36 34 33 33 32 32 31 31 32 34 35 35 35 35 35 34 33 33 32 31 31 30 30 31 32 32 34 37 40 43
44 43 43 43 43 42 39 37 36 36 36 34 32 31 30 30 29 28 29 31 33 34 35 34 34 35 34 33 32 32 32 31 31 32 32 32 33 34 35 38 42 44
43 42 42 42 40 39 37 35 34 34 33 31 29 29 28 28 27 28 29 31 33 34 34 34 34 34 32 31 32 32 31 31 33 34 34 34 34 34 35 39 43 45
42 41 41 39 38 37 36 34 33 32 30 29 28 28 28 28 28 29 30 31 32 34 34 34 34 32 30 31 31 31 31 33 35 36 35 34 34 34 36 40 43 45
41 40 39 39 39 38 35 32 31 30 29 28 29 29 29 30 30 30 30 31 33 34 34 33 32 31 31 32 31 30 31 33 35 36 35 34 34 34 36 41 44 45
41 39 39 39 39 37 33 31 32 30 29 29 30 31 32 31 31 31 31 32 33 34 35 33 31 30 32 33 32 31 31 33 35 36 36 36 35 34 38 43 44 46
40 38 39 40 38 35 32 32 32 31 30 31 32 33 33 32 32 32 32 32 33 35 34 31 28 29 32 33 33 33 33 34 36 36 37 37 35 36 41 44 44 48
39 39 40 39 37 34 33 33 33 32 32 33 34 34 33 32 33 33 33 33 34 34 33 29 28 30 33 33 34 35 34 34 34 35 36 35 35 37 42 43 45 50
40 40 40 39 37 35 33 33 34 34 33 34 34 33 33 33 34 34 34 35 34 33 32 31 31 32 33 33 33 34 34 33 33 33 33 33 36 40 43 45 48 51
41 41 41 40 38 36 35 35 35 35 35 34 34 33 33 33 35 36 35 35 34 34 34 34 33 32 32 32 32 31 33 33 33 32 33 36 40 44 45 47 50 51
43 44 43 42 40 38 36 36 36 37 36 34 33 33 33 34 35 37 36 35 35 35 36 37 35 33 32 33 34 34 36 35 34 35 38 40 43 45 46 48 50 50
46 46 46 45 43 39 37 36 37 37 36 34 34 34 33 34 36 37 37 37 36 37 38 38 36 34 34 36 38 41 41 39 38 40 42 43 44 47 48 49 50 50
48 48 48 47 44 40 38 37 36 36 37 36 35 35 34 35 37 38 39 39 37 36 37 36 35 37 38 39 42 45 45 44 44 46 47 47 48 49 50 50 51 52
49 49 49 47 45 42 39 37 36 37 38 38 37 37 36 36 38 39 40 39 36 35 36 37 38 41 43 42 44 46 47 48 49 51 51 51 51 52 51 51 51 53
50 50 49 48 45 43 40 38 37 38 39 40 40 40 39 38 39 40 40 39 36 36 38 38 39 41 42 43 45 47 48 48 49 50 51 52 53 52 50 50 52 55

ECMWFNIL_250_spd_132.txt.gz
Wind_Speed
57 56 54 53 50 48 47 47 47 47 46 46 45 44 42 41 41 42 43 44 45 45 46 47 47 47 47 47 48 48 49 49 49 49 49 48 46 45 42 39 38 37
58 56 54 52 49 48 48 47 47 47 47 46 45 44 43 42 42 43 44 45 46 47 47 48 48 48 48 48 48 48 48 48 48 48 46 44 43 41 38 36 36 35
59 56 54 52 49 48 48 47 47 48 47 47 46 45 44 44 44 45 46 47 48 48 49 49 49 48 48 48 48 48 47 47 46 45 43 41 40 37 35 34 34 31
60 58 55 52 50 49 48 47 48 49 49 48 47 47 46 46 46 47 47 48 49 49 50 50 49 48 47 47 46 46 45 44 43 41 40 38 36 34 33 33 32 29
61 59 56 53 51 50 48 48 50 51 51 50 49 49 49 48 48 48 48 49 49 49 50 49 47 46 45 44 44 43 41 41 40 39 37 35 33 32 32 32 30 28
61 59 57 54 52 51 50 50 52 53 53 52 50 50 51 50 49 49 49 48 49 49 49 47 44 42 42 41 41 39 39 38 38 36 34 32 31 31 32 31 29 28
60 60 57 55 54 53 52 53 54 55 55 54 52 51 51 51 50 49 48 48 48 48 46 42 40 39 39 39 38 37 37 36 35 33 31 31 31 31 32 30 28 28
60 59 55 54 55 54 54 55 56 57 55 54 52 51 51 50 49 48 47 46 46 45 41 38 37 38 38 37 36 35 35 35 33 32 31 31 31 31 31 30 29 29
59 58 53 52 54 55 56 56 57 56 54 53 51 50 49 48 47 46 45 44 43 40 37 35 36 36 35 34 33 34 34 34 33 31 31 31 31 32 32 31 31 32
58 57 51 49 50 53 55 55 54 53 51 50 48 47 46 45 44 43 42 41 38 36 34 34 35 34 32 32 32 33 34 33 32 31 31 31 32 33 32 31 32 33
57 55 50 47 47 49 51 51 50 49 48 46 45 44 43 42 41 41 39 37 34 33 33 33 32 31 30 30 31 32 33 32 31 31 30 31 32 32 32 31 33 34
56 52 48 47 46 46 46 47 46 46 45 43 42 41 39 39 39 38 36 33 32 32 32 30 29 28 29 30 31 32 31 31 30 30 30 30 31 31 32 32 34 35
52 49 47 47 45 44 44 44 43 43 42 40 39 38 37 37 37 35 33 31 31 31 29 27 27 27 28 29 31 31 31 30 29 29 29 30 30 31 32 33 34 36
49 47 46 45 44 43 42 43 42 41 40 38 37 37 36 36 35 33 31 30 30 28 26 26 26 27 28 30 31 31 31 30 29 29 29 30 31 32 33 34 36 37
47 46 45 44 44 42 42 42 41 39 38 37 37 37 36 35 33 31 30 30 29 27 25 26 27 27 29 30 31 31 31 30 29 29 30 31 32 33 34 35 37 39
46 45 44 44 44 42 41 41 39 38 38 37 37 36 35 34 32 31 30 29 28 26 26 26 27 28 30 31 31 32 31 29 28 29 31 33 34 35 36 37 37 37
46 45 45 45 44 42 41 40 38 37 38 37 36 35 34 34 32 31 30 29 28 28 27 26 27 28 30 32 32 32 31 29 28 31 34 36 36 37 37 38 37 35
46 46 46 45 43 41 40 39 38 38 37 35 34 35 35 34 33 31 30 30 29 28 28 27 27 29 31 33 33 32 31 30 31 33 35 37 37 38 38 38 36 34
48 48 47 45 42 40 40 39 37 38 37 34 34 35 36 35 32 30 30 30 30 30 28 27 28 29 31 33 33 31 31 32 33 34 35 36 37 38 37 37 37 37
50 49 47 45 42 40 39 39 38 38 36 34 35 37 37 35 32 30 30 30 31 31 29 29 29 30 31 33 33 32 32 34 35 35 35 35 36 37 38 40 42 42
50 49 47 44 42 40 40 39 39 38 36 34 36 38 37 35 31 29 30 31 31 31 31 31 31 31 32 33 32 33 34 35 35 35 36 36 37 39 41 43 45 46
51 49 46 43 42 41 41 40 40 39 37 36 37 38 37 35 32 31 30 31 32 33 33 35 35 34 32 32 32 34 35 35 34 34 37 39 40 41 42 44 46 49
53 49 45 43 43 43 42 41 41 40 38 37 38 38 37 36 35 33 31 31 32 35 36 38 38 36 33 32 33 35 35 36 36 37 39 41 43 44 45 48 50 51
54 50 46 45 45 44 43 42 42 41 39 38 38 38 38 38 37 35 33 32 34 37 38 39 39 37 36 34 33 34 36 37 39 40 41 42 44 45 47 49 50 51
54 50 47 47 47 45 44 44 43 41 40 38 38 39 40 39 38 36 35 35 36 37 38 39 40 40 40 38 35 35 37 38 39 40 41 44 46 47 47 48 49 50
53 50 49 49 48 45 45 45 44 42 40 40 40 41 41 41 39 38 37 37 37 38 39 41 42 43 42 41 39 39 39 40 41 41 43 46 47 47 47 48 50 50

ECMWFNIL_250_spd_135.txt.gz
Wind_Speed
58 57 55 54 53 52 50 49 49 48 45 43 42 43 46 46 43 42 43 42 42 44 44 44 45 45 45 45 46 46 47 48 48 47 45 43 42 41 40 39 38 37
59 59 57 57 56 53 52 51 50 47 45 43 42 44 47 47 44 44 45 43 43 45 45 45 46 46 47 47 47 48 48 48 47 45 43 42 40 38 37 37 36 35
61 60 59 59 58 55 53 51 50 48 45 42 42 45 48 48 45 45 46 44 44 45 46 46 47 48 48 49 49 49 48 47 44 42 41 40 38 36 35 35 34 32
63 63 62 62 60 57 54 52 50 48 45 43 43 46 48 48 46 46 46 45 44 45 47 48 49 49 50 50 50 49 47 44 41 40 39 37 36 35 34 33 32 30
66 66 65 64 62 59 56 54 53 50 47 44 44 46 49 49 48 47 47 47 46 46 48 50 50 51 51 50 49 47 43 41 39 38 37 35 34 33 33 32 32 30
68 68 67 66 64 61 58 57 56 53 50 47 47 48 50 51 50 48 48 48 48 48 49 50 51 51 51 49 47 43 40 38 37 35 34 34 33 32 32 32 31 30
68 69 68 67 64 60 59 58 57 55 52 50 49 50 51 53 52 50 48 49 50 49 49 51 51 51 49 46 43 39 37 36 34 33 33 32 31 31 31 31 30 29
68 68 67 64 61 58 58 58 56 55 53 51 50 51 52 54 53 51 49 50 51 50 49 50 50 49 46 42 38 36 35 34 32 31 31 31 31 31 30 30 29 28
66 65 63 60 57 56 56 56 54 52 51 50 50 51 52 54 53 51 50 50 50 49 49 48 47 46 43 37 35 34 33 31 29 29 30 30 30 30 29 29 29 28
64 62 59 57 55 54 55 54 52 50 47 48 49 50 52 53 51 50 49 49 48 48 47 45 45 43 38 34 33 32 30 28 27 28 28 29 29 29 29 29 29 28
63 61 58 56 55 54 54 54 52 48 45 45 47 49 50 51 49 48 47 46 46 46 45 43 42 39 35 32 32 30 27 26 26 27 27 28 29 30 30 29 29 29
63 60 58 57 56 55 54 54 52 48 44 43 44 46 48 48 46 46 45 44 44 44 43 41 39 36 33 31 29 26 25 26 26 26 27 28 29 30 30 30 30 31
61 59 57 57 56 55 54 54 51 47 44 42 42 43 45 45 44 43 43 43 43 42 41 39 36 33 32 29 26 25 25 26 27 27 27 28 29 30 30 30 31 32
60 57 56 56 55 54 53 52 49 45 43 42 41 42 44 43 42 42 42 42 41 41 40 36 33 32 31 27 24 25 26 28 28 28 28 28 29 30 30 30 32 33
59 56 55 54 53 52 51 50 47 43 41 40 40 42 43 42 40 41 41 40 40 40 37 33 31 31 29 25 25 26 27 29 29 29 29 28 28 29 30 31 32 35
59 56 54 54 53 51 50 48 44 41 39 39 40 42 43 42 40 39 40 40 39 38 34 31 31 30 28 26 26 27 29 30 30 30 29 28 28 29 30 31 33 35
58 56 54 55 54 51 50 46 43 40 38 39 41 42 43 42 39 38 40 39 38 36 33 31 31 30 28 27 27 28 30 30 31 31 30 29 29 30 30 31 33 35
58 56 56 56 55 53 49 45 42 40 39 40 42 42 43 40 38 38 40 38 37 35 32 31 31 30 28 28 28 29 30 31 32 32 31 30 30 30 30 32 33 34
59 58 58 58 57 55 50 45 43 42 41 41 42 42 42 39 37 39 40 38 36 34 32 31 31 31 30 29 29 30 30 32 33 33 32 31 31 31 31 31 32 33
60 59 60 60 59 56 51 46 44 43 42 42 43 42 41 39 38 39 39 37 36 34 32 31 32 32 30 29 30 30 31 32 33 33 33 33 32 31 31 33 33 34
62 62 61 61 60 58 52 48 47 46 44 44 43 43 42 40 39 39 39 38 36 35 33 31 33 33 31 30 31 31 32 33 34 34 34 34 33 33 34 35 36 36
65 65 63 62 61 59 54 50 49 48 46 45 44 43 41 40 40 40 40 39 37 35 33 32 34 35 33 32 32 33 33 34 35 35 34 34 35 36 37 38 38 38
68 68 66 64 63 60 55 53 52 50 48 47 46 44 41 41 41 41 41 40 38 36 34 34 36 36 34 34 34 34 35 35 36 36 35 36 38 38 39 40 40 40
71 71 69 67 65 61 58 56 54 52 50 48 47 44 42 42 43 43 42 41 39 38 36 36 37 36 35 36 36 36 36 36 37 37 37 38 39 40 41 42 42 42
75 74 72 69 67 63 60 58 57 54 52 51 49 45 42 43 44 44 44 42 41 40 38 37 37 37 37 38 38 38 39 39 38 38 39 40 40 41 42 42 43 42
77 76 74 71 68 66 63 60 58 56 54 52 50 46 43 44 44 45 45 44 43 42 40 38 37 38 38 38 39 40 41 41 41 40 41 42 42 42 41 41 42 41

ECMWFNIL_250_spd_138.txt.gz
Wind_Speed
61 59 58 56 53 51 52 53 53 52 52 50 48 48 47 45 44 42 42 44 45 45 42 41 41 41 42 42 42 44 44 44 45 45 46 47 48 48 47 45 42 39
63 62 60 57 54 52 53 54 54 52 51 50 48 47 46 45 44 43 43 44 46 46 44 42 42 42 43 43 43 44 45 45 46 46 47 48 48 47 45 42 39 36
63 63 62 59 56 54 53 54 53 52 52 50 48 47 46 45 45 45 45 45 47 48 46 43 43 43 43 44 45 45 46 46 47 48 48 48 47 44 42 39 35 34
63 63 63 61 59 57 55 54 53 52 52 52 49 47 46 46 46 46 46 47 48 50 49 46 44 44 45 46 47 46 46 47 48 49 49 47 44 42 39 36 33 32
62 62 62 62 61 59 57 55 54 53 53 53 52 49 48 47 48 48 48 48 50 51 51 48 46 46 47 47 48 48 47 48 49 49 47 44 41 39 37 33 31 30
63 62 62 63 62 61 59 57 56 55 55 55 54 51 50 49 49 50 50 50 52 54 54 51 48 48 48 48 49 50 49 48 49 48 44 40 39 37 34 31 30 30
67 64 64 64 63 63 61 59 58 57 57 57 56 54 52 50 51 53 52 52 54 56 56 54 50 49 49 49 50 50 49 48 47 45 40 38 37 34 31 30 30 31
70 68 66 64 63 63 63 61 59 58 59 59 58 56 54 52 53 55 54 53 55 57 57 55 52 50 50 50 50 50 49 48 45 41 38 36 35 32 29 29 29 31
70 69 67 64 62 62 63 63 60 59 60 61 60 58 55 52 53 55 55 53 55 57 57 54 53 51 50 50 50 49 49 47 42 38 36 36 33 30 28 28 29 31
67 66 66 65 62 62 63 62 61 60 60 61 59 56 54 51 51 53 53 52 54 56 56 53 52 51 50 50 50 48 48 45 38 35 35 35 31 28 27 28 30 31
70 67 64 62 59 60 61 61 59 58 58 57 55 53 51 49 48 50 50 50 52 55 54 52 51 51 50 50 48 47 46 42 35 33 35 33 30 28 28 29 30 31
68 67 64 62 60 60 60 59 57 55 54 53 51 50 49 47 46 47 48 48 50 53 52 50 50 49 49 49 48 46 44 38 33 33 34 31 29 28 29 30 31 31
62 62 63 63 62 62 62 58 56 54 53 51 49 48 48 47 45 45 46 45 48 51 51 49 48 47 47 47 47 45 41 36 33 34 34 31 29 29 30 30 31 32
62 62 63 62 60 61 61 58 55 54 53 50 48 48 48 48 46 45 45 44 46 50 50 48 46 46 46 47 48 44 39 34 33 34 33 31 30 30 30 31 31 33
67 66 67 64 59 56 55 54 53 54 53 50 49 49 49 48 47 45 44 44 45 48 49 48 46 45 46 47 48 43 37 34 34 34 32 31 31 31 31 31 32 33
70 69 67 65 61 56 52 50 51 51 51 49 48 49 49 48 46 44 43 43 45 46 48 47 46 45 46 48 47 42 36 35 35 33 32 32 31 31 31 31 32 34
68 67 65 62 60 57 52 50 49 49 48 48 47 48 48 46 43 42 42 43 44 45 46 47 46 46 46 47 47 40 36 36 35 33 32 32 31 31 31 31 32 34
65 64 61 58 56 55 52 51 50 49 47 47 46 47 47 44 40 40 42 43 44 44 45 46 46 46 47 47 45 39 36 37 35 33 33 32 32 32 31 31 32 34
63 61 58 55 55 53 51 51 51 50 49 48 47 48 47 42 39 40 42 43 43 43 44 44 45 46 47 46 44 39 36 37 35 33 33 33 33 33 31 32 33 34
61 59 55 54 54 53 53 53 52 51 51 50 50 50 48 42 39 41 44 44 43 43 42 42 44 46 47 45 43 38 36 37 36 33 33 33 34 33 32 33 34 34
61 57 54 53 54 55 55 54 53 52 53 53 53 52 50 45 42 43 45 45 44 43 41 41 44 47 46 45 43 39 37 38 36 34 33 33 34 34 33 34 36 35
62 58 54 52 53 55 55 53 53 53 55 55 55 55 54 48 44 44 47 47 46 44 41 41 46 47 45 45 43 39 38 38 37 35 34 33 35 35 33 35 36 36
64 60 54 51 52 56 56 55 55 55 57 58 57 57 57 52 47 47 50 50 49 45 42 43 47 48 45 45 44 40 38 38 38 37 35 35 36 35 34 35 37 38
65 61 56 51 52 56 57 57 58 58 59 61 60 60 59 56 52 51 52 52 51 47 44 44 48 48 46 45 45 41 39 38 38 38 37 37 38 36 35 36 38 40
64 61 56 53 55 58 60 61 62 61 62 63 62 62 61 59 55 54 54 55 53 50 46 45 49 50 47 46 46 42 39 39 40 39 38 39 39 37 35 36 39 42
64 61 56 54 56 59 60 62 63 62 62 63 64 64 64 62 58 56 57 57 56 53 49 47 50 51 49 47 46 43 41 41 40 39 39 40 40 38 36 37 40 42

ECMWFNIL_250_spd_141.txt.gz
Wind_Speed
67 66 63 61 58 55 53 50 48 49 50 50 49 47 46 46 47 46 46 46 45 44 45 45 45 44 42 41 39 39 42 43 43 44 45 45 46 46 46 47 48 48
68 66 65 62 58 55 53 52 49 48 49 50 49 48 46 46 47 46 46 47 46 44 45 46 45 44 43 42 40 40 42 44 44 45 46 47 47 48 48 48 48 48
69 67 66 62 58 55 54 53 50 48 48 48 49 48 47 47 47 47 47 46 46 44 44 46 46 45 45 44 42 40 42 45 45 46 47 48 49 49 49 48 48 48
69 68 66 63 60 57 56 54 51 50 49 49 50 49 48 49 48 48 46 45 45 45 45 46 46 46 47 46 44 42 42 46 47 48 49 49 50 50 49 48 47 47
69 69 67 64 62 59 57 55 53 52 51 50 50 50 49 49 48 47 46 44 45 46 46 46 46 48 48 47 47 46 45 47 50 50 51 50 50 50 49 47 46 46
71 69 68 66 64 62 59 57 55 53 52 51 50 50 49 48 47 47 46 45 45 46 47 47 47 49 50 49 49 49 48 49 51 52 51 50 50 49 48 47 45 44
72 71 70 69 67 65 61 58 56 55 54 53 52 52 50 48 47 47 47 47 47 47 48 48 48 49 51 52 51 51 51 50 51 52 50 49 49 48 47 46 44 43
75 73 72 71 69 67 63 60 58 57 57 55 53 51 50 48 48 48 48 48 49 49 50 50 50 51 53 54 53 52 51 50 50 51 49 48 48 47 46 44 43 41
77 75 74 73 71 68 64 62 60 59 59 56 52 51 49 48 49 50 50 50 50 51 51 51 51 52 54 55 53 52 50 49 48 49 48 47 47 46 44 42 41 40
79 77 75 73 71 68 66 64 63 62 61 58 55 53 51 51 51 51 51 51 52 52 53 53 53 53 54 54 52 50 48 46 46 47 47 46 45 45 43 41 41 39
79 77 76 74 71 70 68 67 66 64 63 62 60 58 57 56 54 52 50 51 52 53 53 53 53 52 52 52 51 48 45 44 44 45 46 44 44 44 41 40 41 39
76 75 74 73 72 72 71 70 68 67 66 65 64 62 60 58 55 52 49 50 50 51 51 51 50 49 49 50 49 47 45 43 43 45 45 44 44 43 40 40 41 39
74 72 73 74 73 72 72 72 71 69 66 65 64 63 60 56 53 50 47 46 47 47 47 46 46 46 47 48 48 47 45 43 43 45 45 44 44 42 39 40 42 39
71 68 69 72 72 72 71 72 71 68 65 63 62 61 57 53 50 48 46 44 44 44 43 42 42 44 46 47 47 47 46 44 42 44 46 45 44 41 38 40 42 40
70 67 65 67 70 69 69 70 68 65 63 61 59 58 55 52 50 48 46 45 43 42 42 41 41 43 45 46 46 46 46 44 41 43 45 45 43 41 38 40 42 40
73 72 69 68 69 67 66 67 65 62 62 59 56 56 53 50 48 47 46 45 43 41 41 41 41 42 44 45 45 45 45 43 40 42 45 44 43 40 39 41 42 40
75 74 71 69 67 66 66 65 62 61 61 57 52 49 47 44 43 42 41 42 41 40 40 40 40 41 41 43 44 43 43 41 39 40 43 43 42 40 39 41 42 40
74 72 71 68 65 64 64 64 62 61 60 55 51 48 44 42 42 40 39 39 38 38 37 38 39 39 38 41 43 41 41 40 38 38 41 42 41 39 39 41 41 40
74 71 70 69 67 65 64 63 61 61 61 59 57 53 47 44 44 43 40 38 36 35 35 37 38 37 37 40 41 40 39 38 37 38 41 42 40 38 39 41 41 40
74 70 67 67 66 65 64 63 61 61 61 61 60 55 49 45 45 44 42 38 36 35 35 36 36 36 38 41 40 39 39 38 37 38 41 43 41 38 39 41 41 41
74 70 67 66 66 65 64 63 62 60 59 58 57 54 50 46 44 43 41 38 37 35 35 36 36 37 40 42 41 39 39 38 37 38 41 43 42 39 39 40 41 41
77 72 69 67 66 65 64 62 61 61 60 59 57 53 49 46 44 42 40 39 38 36 35 36 38 39 41 43 42 40 40 39 38 39 42 44 44 41 39 41 42 42
79 74 71 70 68 64 62 61 60 60 59 58 55 52 48 46 44 43 41 39 38 37 36 38 39 40 42 44 44 42 41 41 40 40 43 45 45 43 40 41 43 42
81 73 65 65 68 65 61 60 60 58 56 55 54 52 48 46 46 46 43 40 38 37 37 39 40 41 43 45 46 45 44 43 41 42 44 46 47 45 43 42 43 42
81 75 66 63 64 63 61 60 59 57 55 54 53 52 48 46 46 46 44 42 40 38 38 40 41 43 45 46 47 47 46 45 44 43 45 48 48 46 45 44 44 43
79 79 76 70 65 61 59 59 59 57 55 53 52 50 48 46 46 45 44 43 41 40 39 40 42 44 46 48 50 50 49 48 46 45 47 49 49 48 47 47 45 44